Location: Unspecified
(47.9110°N, 14.3980°E)
Time: 21:51:57
(UTC+00:00)

Cosmos 1833 Rocket - Pass Details

Date: 06 August 2020
Orbit: 831 x 841 km, 71.0° (Epoch: 22 September)

Event Time Altitude Azimuth Distance (km) Brightness Sun altitude
Rises 19:43:03 0° 187° (S) 3,362 5.5 -11.1°
Reaches altitude 10° 19:45:32 10° 182° (S) 2,433 4.7 -11.4°
Maximum altitude 19:50:52 47° 109° (ESE) 1,088 2.9 -12.1°
Drops below altitude 10° 19:56:14 10° 37° (NE) 2,456 5.2 -12.8°
Sets 19:58:45 0° 32° (NNE) 3,396 6.0 -13.1°
